Simultaneous Nadir Overpasses (SNOs) Predictions

Prediction of SNOs between NOAA-19 and NPP Satellite Orbit:

Table of predicted SNOs for the next 14.0 days since TLE Epoch: 6/29/2020
Index Date (NOAA-19) Time (NOAA-19) Lat,Lon (NOAA-19) SZA (NOAA-19 ) Date (NPP) Time (NPP) Lat,Lon (NPP) SZA (NPP ) Distance(km) Time Diff (sec)
1 07/02/2020 23:35:22 79.25, 153.41 58.24 07/02/2020 23:36:36 79.25, 153.42 58.21 0.73 74
2 07/03/2020 00:26:27 -79.27, -39.18 121.76 07/03/2020 00:27:20 -79.24, -39.14 121.82 3.46 53
3 07/03/2020 01:17:22 79.27, 128.07 58.25 07/03/2020 01:18:06 79.26, 128.04 58.22 1.23 44
4 07/03/2020 02:08:28 -79.25, -64.80 121.75 07/03/2020 02:08:51 -79.27, -64.79 121.75 2.12 23
5 07/03/2020 02:59:22 79.28, 102.72 58.25 07/03/2020 02:59:36 79.26, 102.65 58.23 3.19 14
6 07/03/2020 03:50:28 -79.27, -90.14 121.75 07/03/2020 03:50:21 -79.28, -90.18 121.74 0.81 7
7 07/03/2020 04:41:23 79.27, 77.10 58.26 07/03/2020 04:41:06 79.26, 77.26 58.24 3.39 17
8 07/03/2020 05:32:28 -79.29,-115.48 121.75 07/03/2020 05:31:51 -79.28,-115.56 121.73 2.18 37
9 07/03/2020 06:23:23 79.29, 51.76 58.26 07/03/2020 06:22:37 79.30, 51.61 58.30 3.29 46
10 07/03/2020 07:14:29 -79.28,-141.10 121.74 07/03/2020 07:13:21 -79.28,-140.95 121.72 2.99 68
